User: anonymous   Login
Location: downtown San Diego
(32.7310°N, 117.1990°W)
Time: 04:17:52
(UTC-08:00)
Language:

Cosmos 1844 Rocket - Orbit

View from above orbital plane
View from above orbital plane
View from above satellite
View from above satellite

Ground track
Ground track

The orbit data is extracted from the following two-line orbital elements,

1 17974U 87041B   18350.14022043  .00000164  00000-0  10467-3 0  9993
2 17974  71.0068 197.4590 0016278 277.2878 221.0294 14.17249038634172
Epoch (UTC): 16 December 2018 03:21:55
Eccentricity: 0.0016278
inclination: 71.0068°
perigee height: 823 km
apogee height: 846 km
right ascension of ascending node: 197.4590°
argument of perigee: 277.2878°
revolutions per day: 14.17249038
mean anomaly at epoch: 221.0294°
orbit number at epoch: 63417

The dashed part of the orbit path shows where the satellite is in the earth's shadow,  

DLR